M I D A S
Marine Information and Data Acquisition System
Tripno 1620 of the Zeeleeuw from 2008-12-16 07:49:51 to 2008-12-16 15:34:48
Back to CruiseResearch ActivitiesStationsMapUnderway DataData graphs

EquipmentUnitsComments
TimeDGPSUTC
LatitudeDGPSDM.mWGS84
LongitudeDGPSDM.mWGS84
SpeedMeteo Stationm/sRelative wind speed
DirectionMeteo StationdegRelative wind direction
TemperatureMeteo Stationdeg CelciusAir temperature
PressureMeteo StationPaAtmospheric pressure
HumidityMeteo Station%Relative humidity
Missing or incorrect values are displayed as -999
Metereological data collected by the RV Zeeleeuw from 2008-12-16 07:55:19 to 2008-12-16 15:37:03
Time Latitude Longitude Speed Direction Temperature Pressure Humidity
2008-12-16 07:56 51°13.679 2°55.889 -999 -999 -999 -999 -999
2008-12-16 07:57 51°13.687 2°55.79 -999 -999 -999 -999 -999
2008-12-16 07:58 51°13.684 2°55.734 -999 -999 -999 -999 -999
2008-12-16 07:59 51°13.719 2°55.725 -999 -999 -999 -999 -999
2008-12-16 08:00 51°13.817 2°55.644 -999 -999 -999 -999 -999
2008-12-16 08:01 51°13.941 2°55.552 -999 -999 -999 -999 -999
2008-12-16 08:02 51°14.068 2°55.459 -999 -999 -999 -999 -999
2008-12-16 08:03 51°14.193 2°55.356 -999 -999 -999 -999 -999
2008-12-16 08:04 51°14.298 2°55.199 -999 -999 -999 -999 -999
2008-12-16 08:05 51°14.4 2°55.011 -999 -999 -999 -999 -999
2008-12-16 08:06 51°14.518 2°54.828 -999 -999 -999 -999 -999
2008-12-16 08:07 51°14.657 2°54.674 -999 -999 -999 -999 -999
2008-12-16 08:08 51°14.805 2°54.527 -999 -999 -999 -999 -999
2008-12-16 08:09 51°14.963 2°54.38 -999 -999 -999 -999 -999
2008-12-16 08:10 51°15.13 2°54.232 -999 -999 -999 -999 -999
2008-12-16 08:11 51°15.305 2°54.072 -999 -999 -999 -999 -999
2008-12-16 08:12 51°15.481 2°53.918 -999 -999 -999 -999 -999
2008-12-16 08:13 51°15.659 2°53.76 -999 -999 -999 -999 -999
2008-12-16 08:14 51°15.835 2°53.601 -999 -999 -999 -999 -999
2008-12-16 08:15 51°16.012 2°53.44 -999 -999 -999 -999 -999
2008-12-16 08:16 51°16.192 2°53.286 -999 -999 -999 -999 -999
2008-12-16 08:17 51°16.373 2°53.132 -999 -999 -999 -999 -999
2008-12-16 08:18 51°16.556 2°52.982 -999 -999 -999 -999 -999
2008-12-16 08:19 51°16.737 2°52.835 -999 -999 -999 -999 -999
2008-12-16 08:20 51°16.912 2°52.685 -999 -999 -999 -999 -999
2008-12-16 08:21 51°17.088 2°52.53 -999 -999 -999 -999 -999
2008-12-16 08:22 51°17.265 2°52.376 -999 -999 -999 -999 -999
2008-12-16 08:23 51°17.436 2°52.202 -999 -999 -999 -999 -999
2008-12-16 08:24 51°17.599 2°52.007 -999 -999 -999 -999 -999
2008-12-16 08:25 51°17.758 2°51.802 -999 -999 -999 -999 -999
2008-12-16 08:26 51°17.918 2°51.594 -999 -999 -999 -999 -999
2008-12-16 08:27 51°18.073 2°51.374 -999 -999 -999 -999 -999
2008-12-16 08:28 51°18.229 2°51.151 -999 -999 -999 -999 -999
2008-12-16 08:29 51°18.385 2°50.931 -999 -999 -999 -999 -999
2008-12-16 08:30 51°18.542 2°50.707 -999 -999 -999 -999 -999
2008-12-16 08:31 51°18.698 2°50.479 -999 -999 -999 -999 -999
2008-12-16 08:32 51°18.855 2°50.254 -999 -999 -999 -999 -999
2008-12-16 08:33 51°19.016 2°50.034 -999 -999 -999 -999 -999
2008-12-16 08:34 51°19.177 2°49.812 -999 -999 -999 -999 -999
2008-12-16 08:35 51°19.34 2°49.586 -999 -999 -999 -999 -999
2008-12-16 08:36 51°19.506 2°49.359 -999 -999 -999 -999 -999
2008-12-16 08:37 51°19.671 2°49.131 -999 -999 -999 -999 -999
2008-12-16 08:38 51°19.835 2°48.907 -999 -999 -999 -999 -999
2008-12-16 08:39 51°19.995 2°48.684 -999 -999 -999 -999 -999
2008-12-16 08:40 51°20.155 2°48.468 -999 -999 -999 -999 -999
2008-12-16 08:41 51°20.317 2°48.25 -999 -999 -999 -999 -999
2008-12-16 08:42 51°20.475 2°48.015 -999 -999 -999 -999 -999
2008-12-16 08:43 51°20.64 2°47.8 -999 -999 -999 -999 -999
2008-12-16 08:44 51°20.833 2°47.676 -999 -999 -999 -999 -999
2008-12-16 08:45 51°21.032 2°47.574 -999 -999 -999 -999 -999
2008-12-16 08:46 51°21.233 2°47.468 -999 -999 -999 -999 -999
2008-12-16 08:47 51°21.434 2°47.357 -999 -999 -999 -999 -999
2008-12-16 08:48 51°21.633 2°47.243 -999 -999 -999 -999 -999
2008-12-16 08:49 51°21.827 2°47.122 -999 -999 -999 -999 -999
2008-12-16 08:50 51°22.02 2°47.007 -999 -999 -999 -999 -999
2008-12-16 08:51 51°22.213 2°46.895 -999 -999 -999 -999 -999
2008-12-16 08:52 51°22.405 2°46.792 -999 -999 -999 -999 -999
2008-12-16 08:53 51°22.593 2°46.664 -999 -999 -999 -999 -999
2008-12-16 08:54 51°22.736 2°46.415 -999 -999 -999 -999 -999
2008-12-16 08:55 51°22.859 2°46.132 -999 -999 -999 -999 -999
2008-12-16 08:56 51°22.987 2°45.851 -999 -999 -999 -999 -999
2008-12-16 08:57 51°23.113 2°45.569 -999 -999 -999 -999 -999
2008-12-16 08:58 51°23.241 2°45.29 -999 -999 -999 -999 -999
2008-12-16 08:59 51°23.368 2°45.012 -999 -999 -999 -999 -999
2008-12-16 09:00 51°23.489 2°44.728 -999 -999 -999 -999 -999
2008-12-16 09:01 51°23.613 2°44.448 -999 -999 -999 -999 -999
2008-12-16 09:02 51°23.734 2°44.163 -999 -999 -999 -999 -999
2008-12-16 09:03 51°23.856 2°43.881 -999 -999 -999 -999 -999
2008-12-16 09:04 51°23.98 2°43.603 -999 -999 -999 -999 -999
2008-12-16 09:05 51°24.107 2°43.327 -999 -999 -999 -999 -999
2008-12-16 09:06 51°24.246 2°43.07 -999 -999 -999 -999 -999
2008-12-16 09:07 51°24.39 2°42.822 -999 -999 -999 -999 -999
2008-12-16 09:08 51°24.526 2°42.566 -999 -999 -999 -999 -999
2008-12-16 09:09 51°24.659 2°42.309 -999 -999 -999 -999 -999
2008-12-16 09:10 51°24.811 2°42.089 -999 -999 -999 -999 -999
2008-12-16 09:11 51°24.952 2°41.848 -999 -999 -999 -999 -999
2008-12-16 09:12 51°25.077 2°41.579 -999 -999 -999 -999 -999
2008-12-16 09:13 51°25.196 2°41.304 -999 -999 -999 -999 -999
2008-12-16 09:14 51°25.311 2°41.022 -999 -999 -999 -999 -999
2008-12-16 09:15 51°25.419 2°40.731 -999 -999 -999 -999 -999
2008-12-16 09:16 51°25.536 2°40.444 -999 -999 -999 -999 -999
2008-12-16 09:17 51°25.662 2°40.17 -999 -999 -999 -999 -999
2008-12-16 09:18 51°25.782 2°39.888 -999 -999 -999 -999 -999
2008-12-16 09:19 51°25.909 2°39.617 -999 -999 -999 -999 -999
2008-12-16 09:20 51°26.037 2°39.346 -999 -999 -999 -999 -999
2008-12-16 09:21 51°26.163 2°39.073 -999 -999 -999 -999 -999
2008-12-16 09:22 51°26.288 2°38.798 -999 -999 -999 -999 -999
2008-12-16 09:23 51°26.405 2°38.515 -999 -999 -999 -999 -999
2008-12-16 09:24 51°26.539 2°38.254 -999 -999 -999 -999 -999
2008-12-16 09:25 51°26.676 2°37.995 -999 -999 -999 -999 -999
2008-12-16 09:26 51°26.819 2°37.749 -999 -999 -999 -999 -999
2008-12-16 09:27 51°26.966 2°37.511 -999 -999 -999 -999 -999
2008-12-16 09:28 51°27.117 2°37.288 -999 -999 -999 -999 -999
2008-12-16 09:29 51°27.271 2°37.071 -999 -999 -999 -999 -999
2008-12-16 09:30 51°27.428 2°36.859 -999 -999 -999 -999 -999
2008-12-16 09:31 51°27.59 2°36.665 -999 -999 -999 -999 -999
2008-12-16 09:32 51°27.749 2°36.461 -999 -999 -999 -999 -999
2008-12-16 09:33 51°27.906 2°36.255 -999 -999 -999 -999 -999
2008-12-16 09:34 51°28.078 2°36.091 -999 -999 -999 -999 -999
2008-12-16 09:35 51°28.266 2°36.005 -999 -999 -999 -999 -999
2008-12-16 09:36 51°28.455 2°35.925 -999 -999 -999 -999 -999
2008-12-16 09:37 51°28.645 2°35.9 -999 -999 -999 -999 -999
2008-12-16 09:38 51°28.833 2°35.915 -999 -999 -999 -999 -999
2008-12-16 09:39 51°29.016 2°35.965 -999 -999 -999 -999 -999
2008-12-16 09:40 51°29.199 2°36.026 -999 -999 -999 -999 -999
2008-12-16 09:41 51°29.381 2°36.093 -999 -999 -999 -999 -999
2008-12-16 09:42 51°29.561 2°36.169 -999 -999 -999 -999 -999
2008-12-16 09:43 51°29.741 2°36.242 -999 -999 -999 -999 -999
2008-12-16 09:44 51°29.92 2°36.321 -999 -999 -999 -999 -999
2008-12-16 09:45 51°30.101 2°36.388 -999 -999 -999 -999 -999
2008-12-16 09:46 51°30.282 2°36.463 -999 -999 -999 -999 -999
2008-12-16 09:47 51°30.46 2°36.547 -999 -999 -999 -999 -999
2008-12-16 09:48 51°30.638 2°36.636 -999 -999 -999 -999 -999
2008-12-16 09:49 51°30.817 2°36.722 -999 -999 -999 -999 -999
2008-12-16 09:50 51°30.998 2°36.793 -999 -999 -999 -999 -999
2008-12-16 09:51 51°31.178 2°36.874 -999 -999 -999 -999 -999
2008-12-16 09:52 51°31.357 2°36.956 -999 -999 -999 -999 -999
2008-12-16 09:53 51°31.535 2°37.038 -999 -999 -999 -999 -999
2008-12-16 09:54 51°31.713 2°37.123 -999 -999 -999 -999 -999
2008-12-16 09:55 51°31.889 2°37.218 -999 -999 -999 -999 -999
2008-12-16 09:56 51°32.067 2°37.303 -999 -999 -999 -999 -999
2008-12-16 09:57 51°32.245 2°37.381 -999 -999 -999 -999 -999
2008-12-16 09:58 51°32.422 2°37.463 -999 -999 -999 -999 -999
2008-12-16 09:59 51°32.599 2°37.548 -999 -999 -999 -999 -999
2008-12-16 10:00 51°32.776 2°37.632 -999 -999 -999 -999 -999
2008-12-16 10:01 51°32.952 2°37.717 -999 -999 -999 -999 -999
2008-12-16 10:02 51°33.127 2°37.807 -999 -999 -999 -999 -999
2008-12-16 10:03 51°33.302 2°37.895 -999 -999 -999 -999 -999
2008-12-16 10:04 51°33.477 2°37.986 -999 -999 -999 -999 -999
2008-12-16 10:05 51°33.652 2°38.079 -999 -999 -999 -999 -999
2008-12-16 10:06 51°33.829 2°38.156 -999 -999 -999 -999 -999
2008-12-16 10:07 51°34.004 2°38.241 -999 -999 -999 -999 -999
2008-12-16 10:08 51°34.176 2°38.342 -999 -999 -999 -999 -999
2008-12-16 10:09 51°34.346 2°38.447 -999 -999 -999 -999 -999
2008-12-16 10:10 51°34.515 2°38.559 -999 -999 -999 -999 -999
2008-12-16 10:11 51°34.687 2°38.661 -999 -999 -999 -999 -999
2008-12-16 10:12 51°34.86 2°38.754 -999 -999 -999 -999 -999
2008-12-16 10:13 51°35.033 2°38.851 -999 -999 -999 -999 -999
2008-12-16 10:14 51°35.203 2°38.963 -999 -999 -999 -999 -999
2008-12-16 10:15 51°35.374 2°39.072 -999 -999 -999 -999 -999
2008-12-16 10:16 51°35.545 2°39.178 -999 -999 -999 -999 -999
2008-12-16 10:17 51°35.717 2°39.282 -999 -999 -999 -999 -999
2008-12-16 10:18 51°35.891 2°39.374 -999 -999 -999 -999 -999
2008-12-16 10:19 51°36.062 2°39.477 -999 -999 -999 -999 -999
2008-12-16 10:20 51°36.234 2°39.585 -999 -999 -999 -999 -999
2008-12-16 10:21 51°36.406 2°39.688 -999 -999 -999 -999 -999
2008-12-16 10:22 51°36.58 2°39.777 -999 -999 -999 -999 -999
2008-12-16 10:23 51°36.753 2°39.875 -999 -999 -999 -999 -999
2008-12-16 10:24 51°36.923 2°39.983 -999 -999 -999 -999 -999
2008-12-16 10:25 51°37.094 2°40.086 -999 -999 -999 -999 -999
2008-12-16 10:26 51°37.265 2°40.189 -999 -999 -999 -999 -999
2008-12-16 10:27 51°37.437 2°40.29 -999 -999 -999 -999 -999
2008-12-16 10:28 51°37.608 2°40.387 -999 -999 -999 -999 -999
2008-12-16 10:29 51°37.779 2°40.486 -999 -999 -999 -999 -999
2008-12-16 10:30 51°37.95 2°40.581 -999 -999 -999 -999 -999
2008-12-16 10:31 51°38.122 2°40.67 -999 -999 -999 -999 -999
2008-12-16 10:32 51°38.293 2°40.757 -999 -999 -999 -999 -999
2008-12-16 10:33 51°38.464 2°40.843 -999 -999 -999 -999 -999
2008-12-16 10:34 51°38.624 2°40.941 2.3 308 3.2 -999 84
2008-12-16 10:35 51°38.789 2°41.039 2.1 308 3.2 101650 87
2008-12-16 10:36 51°38.957 2°41.135 4.7 349 3.3 101650 88
2008-12-16 10:37 51°39.126 2°41.225 3 336 3.4 101650 89
2008-12-16 10:38 51°39.292 2°41.312 2.2 324 3.4 101650 89
2008-12-16 10:39 51°39.459 2°41.398 1.9 343 3.4 101650 90
2008-12-16 10:40 51°39.626 2°41.487 2.2 349 3.4 101640 90
2008-12-16 10:41 51°39.791 2°41.586 1.6 352 3.4 101640 91
2008-12-16 10:42 51°39.958 2°41.687 1.3 337 3.4 101650 91
2008-12-16 10:43 51°40.126 2°41.788 3 335 3.5 101650 91
2008-12-16 10:44 51°40.294 2°41.885 2.5 343 3.5 101640 90
2008-12-16 10:45 51°40.461 2°41.984 3 350 3.4 101640 91
2008-12-16 10:46 51°40.624 2°42.094 3.3 338 3.5 101640 92
2008-12-16 10:47 51°40.79 2°42.203 3.9 342 3.5 101640 92
2008-12-16 10:48 51°40.956 2°42.31 4.2 337 3.6 101640 92
2008-12-16 10:49 51°41.121 2°42.411 2.7 334 3.5 101640 92
2008-12-16 10:50 51°41.288 2°42.509 2.8 333 3.5 101640 92
2008-12-16 10:51 51°41.451 2°42.616 2.6 340 3.5 101640 92
2008-12-16 10:52 51°41.615 2°42.719 3.7 333 3.5 101630 92
2008-12-16 10:53 51°41.781 2°42.824 3.4 310 3.5 101630 93
2008-12-16 10:54 51°41.945 2°42.929 3.4 306 3.5 101620 92
2008-12-16 10:55 51°42.111 2°43.034 1.5 305 3.5 101630 92
2008-12-16 10:56 51°42.275 2°43.139 2.3 327 3.6 101620 93
2008-12-16 10:57 51°42.438 2°43.244 1.9 347 3.7 101620 93
2008-12-16 10:58 51°42.602 2°43.352 2.9 324 3.7 101620 93
2008-12-16 10:59 51°42.769 2°43.45 1.4 322 3.8 101620 93
2008-12-16 11:00 51°42.93 2°43.563 3.5 345 3.8 101620 94
2008-12-16 11:01 51°43.072 2°43.733 3.6 349 3.7 101620 93
2008-12-16 11:02 51°43.125 2°43.995 8.6 349 3.7 101610 92
2008-12-16 11:03 51°43.084 2°44.298 9 349 3.6 101610 93
2008-12-16 11:04 51°43.052 2°44.604 8.8 352 3.6 101600 93
2008-12-16 11:05 51°43.001 2°44.908 5.5 352 3.4 101610 93
2008-12-16 11:06 51°42.94 2°45.213 7.7 354 3.4 101600 93
2008-12-16 11:07 51°42.81 2°45.471 9.7 355 3.4 101600 93
2008-12-16 11:08 51°42.635 2°45.668 10.1 344 3.4 101600 93
2008-12-16 11:09 51°42.411 2°45.662 11.4 335 3.4 101610 94
2008-12-16 11:10 51°42.181 2°45.619 12.4 330 3.4 101600 94
2008-12-16 11:11 51°41.954 2°45.527 11 336 3.4 101600 92
2008-12-16 11:12 51°41.728 2°45.426 10.7 335 3.3 101600 92
2008-12-16 11:13 51°41.511 2°45.276 10.6 331 3.3 101600 92
2008-12-16 11:14 51°41.29 2°45.144 9 330 3.3 101590 93
2008-12-16 11:15 51°41.066 2°45.016 10.7 332 3.3 101600 92
2008-12-16 11:16 51°40.842 2°44.892 12.3 327 3.2 101590 93
2008-12-16 11:17 51°40.618 2°44.77 14.1 330 3.3 101590 93
2008-12-16 11:18 51°40.399 2°44.627 12 331 3.3 101590 93
2008-12-16 11:19 51°40.18 2°44.477 10 301 3.2 101590 93
2008-12-16 11:20 51°39.962 2°44.334 11.1 328 3.3 101570 94
2008-12-16 11:21 51°39.744 2°44.186 13.8 323 3.4 101560 93
2008-12-16 11:22 51°39.528 2°44.025 9.4 331 3.4 101570 94
2008-12-16 11:23 51°39.31 2°43.865 11.5 330 3.3 101560 94
2008-12-16 11:24 51°39.09 2°43.713 12.4 338 3.3 101570 94
2008-12-16 11:25 51°38.872 2°43.561 11.9 338 3.3 101550 94
2008-12-16 11:26 51°38.652 2°43.407 10 333 3.3 101560 94
2008-12-16 11:27 51°38.431 2°43.263 10.1 332 3.2 101570 93
2008-12-16 11:28 51°38.211 2°43.117 11.7 329 3.2 101570 94
2008-12-16 11:29 51°37.995 2°42.956 12.1 329 3.2 101550 93
2008-12-16 11:30 51°37.777 2°42.802 11.5 328 3.2 101560 94
2008-12-16 11:31 51°37.558 2°42.647 8.6 331 3.1 101570 93
2008-12-16 11:32 51°37.336 2°42.513 12.4 304 3.2 101560 94
2008-12-16 11:33 51°37.112 2°42.393 10.6 329 3.2 101560 95
2008-12-16 11:34 51°36.89 2°42.262 10 329 3.2 101550 95
2008-12-16 11:35 51°36.667 2°42.133 11 326 3.3 101550 94
2008-12-16 11:36 51°36.442 2°42.017 11.3 331 3.3 101550 95
2008-12-16 11:37 51°36.219 2°41.894 11.8 332 3.3 101550 95
2008-12-16 11:38 51°35.998 2°41.764 13.3 330 3.3 101540 95
2008-12-16 11:39 51°35.776 2°41.643 11.6 329 3.3 101530 94
2008-12-16 11:40 51°35.556 2°41.509 11.7 327 3.2 101550 95
2008-12-16 11:41 51°35.336 2°41.378 11.1 328 3.2 101530 95
2008-12-16 11:42 51°35.116 2°41.246 11.1 329 3.1 101550 95
2008-12-16 11:43 51°34.893 2°41.115 10.2 329 3.2 101540 96
2008-12-16 11:44 51°34.672 2°40.98 10.8 329 3.1 101540 96
2008-12-16 11:45 51°34.45 2°40.848 10.8 328 3.2 101530 95
2008-12-16 11:46 51°34.228 2°40.718 12.2 332 3.1 101540 95
2008-12-16 11:47 51°34.003 2°40.596 10.5 331 3.1 101540 95
2008-12-16 11:48 51°33.778 2°40.475 10.5 330 3.2 101530 96
2008-12-16 11:49 51°33.554 2°40.344 12.3 336 3.2 101530 96
2008-12-16 11:50 51°33.333 2°40.201 9.4 331 3.2 101530 96
2008-12-16 11:51 51°33.111 2°40.062 9.1 329 3.1 101540 96
2008-12-16 11:52 51°32.887 2°39.93 13.4 328 3.1 101540 96
2008-12-16 11:53 51°32.663 2°39.8 13.1 334 3.1 101520 96
2008-12-16 11:54 51°32.436 2°39.762 8.4 338 3 101530 96
2008-12-16 11:55 51°32.251 2°39.925 9.9 350 3.1 101510 97
2008-12-16 11:56 51°32.213 2°40.22 7.1 350 3 101530 97
2008-12-16 11:57 51°32.248 2°40.517 7.5 351 3 101530 97
2008-12-16 11:58 51°32.284 2°40.816 5.4 350 2.9 101540 97
2008-12-16 11:59 51°32.308 2°41.123 5.4 349 2.8 101540 97
2008-12-16 12:00 51°32.324 2°41.433 5.8 348 2.8 101530 97
2008-12-16 12:01 51°32.368 2°41.716 3.5 352 2.8 101530 97
2008-12-16 12:02 51°32.519 2°41.841 4 334 2.9 101540 98
2008-12-16 12:03 51°32.692 2°41.946 2.3 337 2.9 101540 97
2008-12-16 12:04 51°32.864 2°42.055 2.8 331 2.8 101540 97
2008-12-16 12:05 51°33.034 2°42.171 3.2 328 2.8 101540 97
2008-12-16 12:05 51°14.565 2°58.317 -999 -999 -999 -999 -999
2008-12-16 12:06 51°33.245 2°42.323 3.4 325 2.8 101530 98
2008-12-16 12:07 51°33.415 2°42.436 3.4 327 2.9 101530 98
2008-12-16 12:08 51°33.584 2°42.552 3.8 320 2.9 101530 98
2008-12-16 12:09 51°33.757 2°42.655 2.7 320 2.8 101540 97
2008-12-16 12:10 51°33.926 2°42.77 3.8 321 2.7 101530 98
2008-12-16 12:11 51°34.093 2°42.902 1.9 25 2.7 101530 98
2008-12-16 12:12 51°34.264 2°43.017 2.6 27 2.8 101520 98
2008-12-16 12:13 51°34.435 2°43.135 3.9 27 2.8 101520 98
2008-12-16 12:14 51°34.606 2°43.259 1.6 321 2.8 101520 98
2008-12-16 12:15 51°34.779 2°43.38 3.1 344 2.8 101520 98
2008-12-16 12:16 51°34.946 2°43.509 2.5 348 2.9 101520 98
2008-12-16 12:17 51°35.121 2°43.642 2.6 345 2.9 101520 98
2008-12-16 12:18 51°35.292 2°43.77 3.8 345 3 101510 99
2008-12-16 12:19 51°35.465 2°43.895 4.1 344 2.9 101520 98
2008-12-16 12:20 51°35.638 2°44.017 3.3 342 2.9 101510 98
2008-12-16 12:21 51°35.813 2°44.126 2.6 348 2.8 101520 98
2008-12-16 12:22 51°35.988 2°44.238 2.3 337 2.9 101520 99
2008-12-16 12:23 51°36.157 2°44.358 2.9 333 2.8 101520 98
2008-12-16 12:24 51°36.334 2°44.475 2.5 339 2.8 101520 99
2008-12-16 12:25 51°36.504 2°44.606 2.1 339 2.8 101520 98
2008-12-16 12:26 51°36.678 2°44.727 2.1 346 2.8 101520 99
2008-12-16 12:27 51°36.849 2°44.855 1.2 2 2.8 101510 99
2008-12-16 12:28 51°37.021 2°44.979 2.2 334 2.8 101510 98
2008-12-16 12:29 51°37.194 2°45.105 3.8 336 2.9 101500 99
2008-12-16 12:30 51°37.366 2°45.234 3.5 343 2.9 101500 99
2008-12-16 12:31 51°37.541 2°45.349 2.6 339 2.9 101500 98
2008-12-16 12:32 51°37.715 2°45.47 2.8 350 2.9 101500 98
2008-12-16 12:33 51°37.889 2°45.592 3 355 2.9 101490 99
2008-12-16 12:34 51°38.064 2°45.713 2.4 358 2.9 101500 99
2008-12-16 12:35 51°38.238 2°45.837 2.8 2 2.9 101490 100
2008-12-16 12:36 51°38.411 2°45.974 2.7 356 3 101490 99
2008-12-16 12:37 51°38.583 2°46.098 2.8 352 3 101480 99
2008-12-16 12:38 51°38.764 2°46.217 2.4 350 3 101490 98
2008-12-16 12:39 51°38.939 2°46.345 2.6 350 3 101480 99
2008-12-16 12:40 51°39.113 2°46.474 3.1 347 2.9 101480 99
2008-12-16 12:41 51°39.289 2°46.595 2.6 339 2.9 101480 99
2008-12-16 12:42 51°39.464 2°46.712 2.5 333 2.9 101480 99
2008-12-16 12:43 51°39.643 2°46.835 1.3 357 2.8 101480 99
2008-12-16 12:44 51°39.819 2°46.962 0.7 18 2.9 101480 98
2008-12-16 12:45 51°39.996 2°47.081 2.4 342 3 101470 99
2008-12-16 12:46 51°40.172 2°47.208 1.6 351 3 101470 99
2008-12-16 12:47 51°40.35 2°47.329 1.1 336 2.9 101470 99
2008-12-16 12:48 51°40.531 2°47.438 1.4 330 2.9 101480 99
2008-12-16 12:49 51°40.705 2°47.564 1.7 336 3 101480 99
2008-12-16 12:50 51°40.889 2°47.7 3.5 353 3.2 101470 100
2008-12-16 12:51 51°41.062 2°47.828 4.1 339 3.1 101470 99
2008-12-16 12:52 51°41.241 2°47.946 1.6 345 3.1 101470 99
2008-12-16 12:53 51°41.42 2°48.066 2.6 348 3 101480 99
2008-12-16 12:54 51°41.597 2°48.199 2.5 351 3.1 101470 99
2008-12-16 12:55 51°41.776 2°48.326 3.1 337 3.1 101470 99
2008-12-16 12:56 51°41.956 2°48.448 2.1 343 3.1 101470 100
2008-12-16 12:57 51°41.986 2°48.721 8.6 345 3.1 101460 100
2008-12-16 12:58 51°41.848 2°48.971 9.9 341 3.1 101460 99
2008-12-16 12:59 51°41.691 2°49.207 11.2 339 3.2 101450 99
2008-12-16 13:00 51°41.53 2°49.439 10.3 343 3.2 101450 100
2008-12-16 13:01 51°41.342 2°49.603 11.8 334 3.2 101450 99
2008-12-16 13:02 51°41.125 2°49.61 10.5 338 3.2 101450 98
2008-12-16 13:03 51°40.916 2°49.514 11.8 333 3.1 101460 100
2008-12-16 13:04 51°40.709 2°49.401 10.5 328 3.2 101460 99
2008-12-16 13:05 51°40.497 2°49.302 9.2 329 3.1 101450 100
2008-12-16 13:06 51°40.284 2°49.216 11.1 330 3.1 101450 100
2008-12-16 13:07 51°40.07 2°49.145 12.1 335 3.1 101440 100
2008-12-16 13:08 51°39.862 2°49.041 10.9 333 3 101440 99
2008-12-16 13:09 51°39.658 2°48.925 11.1 334 2.9 101450 98
2008-12-16 13:10 51°39.45 2°48.821 10.7 331 2.9 101440 99
2008-12-16 13:11 51°39.242 2°48.723 8.8 334 2.8 101440 99
2008-12-16 13:12 51°39.036 2°48.622 9.8 326 2.8 101440 99
2008-12-16 13:13 51°38.831 2°48.517 9.5 330 2.8 101440 99
2008-12-16 13:14 51°38.628 2°48.405 10.5 325 2.8 101440 98
2008-12-16 13:15 51°38.426 2°48.297 10.9 327 2.8 101430 99
2008-12-16 13:16 51°38.219 2°48.207 11 329 2.8 101440 100
2008-12-16 13:17 51°38.015 2°48.114 9.7 328 2.9 101430 99
2008-12-16 13:18 51°37.816 2°48.02 11.2 331 3 101430 99
2008-12-16 13:19 51°37.607 2°47.919 9.9 331 3.1 101430 100
2008-12-16 13:20 51°37.409 2°47.825 12.3 332 3 101430 100
2008-12-16 13:21 51°37.211 2°47.715 9.4 335 2.9 101440 99
2008-12-16 13:22 51°37.009 2°47.606 12.4 330 2.9 101440 99
2008-12-16 13:23 51°36.813 2°47.505 10.4 334 2.9 101440 99
2008-12-16 13:24 51°36.613 2°47.414 9.5 334 2.9 101440 99
2008-12-16 13:25 51°36.416 2°47.313 9.9 329 2.9 101440 99
2008-12-16 13:26 51°36.218 2°47.214 8.7 326 2.9 101440 99
2008-12-16 13:27 51°36.023 2°47.11 11.1 328 2.8 101440 100
2008-12-16 13:28 51°35.826 2°47.014 8.3 325 2.8 101440 99
2008-12-16 13:29 51°35.628 2°46.91 10 329 2.7 101440 99
2008-12-16 13:30 51°35.437 2°46.808 11.3 327 2.8 101440 99
2008-12-16 13:31 51°35.24 2°46.72 9.7 330 2.8 101440 99
2008-12-16 13:32 51°35.047 2°46.614 11.3 330 2.8 101430 100
2008-12-16 13:33 51°34.854 2°46.507 12.1 331 2.8 101430 99
2008-12-16 13:34 51°34.663 2°46.396 8.5 329 2.7 101430 100
2008-12-16 13:35 51°34.472 2°46.283 10.7 328 2.7 101430 99
2008-12-16 13:36 51°34.279 2°46.167 10.9 331 2.7 101420 99
2008-12-16 13:37 51°34.092 2°46.055 10.8 328 2.7 101430 100
2008-12-16 13:38 51°33.903 2°45.943 10.3 335 2.7 101420 99
2008-12-16 13:39 51°33.712 2°45.845 10.4 329 2.8 101430 100
2008-12-16 13:40 51°33.522 2°45.747 11 329 2.7 101420 99
2008-12-16 13:41 51°33.334 2°45.638 9.8 328 2.6 101420 99
2008-12-16 13:42 51°33.142 2°45.538 9.9 332 2.6 101430 100
2008-12-16 13:43 51°32.96 2°45.443 10.9 321 2.7 101420 99
2008-12-16 13:44 51°32.77 2°45.325 8.7 324 2.6 101420 100
2008-12-16 13:45 51°32.584 2°45.219 10.2 324 2.7 101420 100
2008-12-16 13:46 51°32.398 2°45.123 10.3 332 2.7 101420 99
2008-12-16 13:47 51°32.211 2°45.03 12 331 2.7 101420 100
2008-12-16 13:48 51°32.032 2°44.937 12.3 326 2.7 101420 100
2008-12-16 13:49 51°31.844 2°44.823 10.6 335 2.6 101420 100
2008-12-16 13:50 51°31.667 2°44.726 10.7 328 2.6 101420 100
2008-12-16 13:51 51°31.478 2°44.629 10.7 330 2.6 101420 100
2008-12-16 13:52 51°31.3 2°44.522 11.2 332 2.5 101420 100
2008-12-16 13:53 51°31.119 2°44.415 9.9 328 2.6 101420 100
2008-12-16 13:54 51°30.936 2°44.315 11 327 2.6 101420 100
2008-12-16 13:55 51°30.754 2°44.215 11.5 330 2.5 101410 100
2008-12-16 13:56 51°30.57 2°44.119 10.9 326 2.5 101410 100
2008-12-16 13:57 51°30.385 2°44.036 11.7 335 2.5 101410 100
2008-12-16 13:58 51°30.201 2°43.952 10.7 333 2.5 101410 100
2008-12-16 13:59 51°30.008 2°43.91 9.2 336 2.4 101410 100
2008-12-16 14:00 51°29.815 2°43.95 9.3 337 2.3 101410 100
2008-12-16 14:01 51°29.617 2°44.024 9.4 339 2.4 101410 100
2008-12-16 14:02 51°29.428 2°44.113 8.5 342 2.3 101400 100
2008-12-16 14:03 51°29.237 2°44.218 10.1 337 2.3 101400 100
2008-12-16 14:04 51°29.046 2°44.325 8.6 342 2.3 101410 100
2008-12-16 14:05 51°28.851 2°44.431 11.3 338 2.2 101400 100
2008-12-16 14:06 51°28.666 2°44.55 9.7 342 2.3 101390 100
2008-12-16 14:07 51°28.477 2°44.677 10 341 2.2 101400 100
2008-12-16 14:08 51°28.289 2°44.811 10.3 336 2.3 101400 100
2008-12-16 14:09 51°28.103 2°44.942 12 333 2.3 101410 100
2008-12-16 14:10 51°27.916 2°45.072 10.9 333 2.3 101410 100
2008-12-16 14:11 51°27.726 2°45.201 10.1 334 2.2 101410 100
2008-12-16 14:12 51°27.54 2°45.334 11 337 2.2 101400 100
2008-12-16 14:13 51°27.353 2°45.467 12.3 330 2.2 101400 100
2008-12-16 14:14 51°27.167 2°45.586 9.8 334 2.1 101410 100
2008-12-16 14:15 51°26.984 2°45.702 11.4 337 2.1 101400 100
2008-12-16 14:16 51°26.799 2°45.826 10.3 337 2 101400 100
2008-12-16 14:17 51°26.619 2°45.95 10 338 2.1 101400 100
2008-12-16 14:18 51°26.438 2°46.06 8.7 337 2 101400 100
2008-12-16 14:19 51°26.253 2°46.184 8.9 338 1.9 101400 100
2008-12-16 14:20 51°26.073 2°46.306 9 341 1.9 101390 100
2008-12-16 14:21 51°25.89 2°46.428 8.6 340 1.8 101400 100
2008-12-16 14:22 51°25.708 2°46.548 9.8 331 1.8 101400 100
2008-12-16 14:23 51°25.524 2°46.659 9.7 329 1.8 101390 100
2008-12-16 14:24 51°25.337 2°46.767 9.5 337 1.8 101390 100
2008-12-16 14:25 51°25.153 2°46.89 9.3 340 1.9 101390 100
2008-12-16 14:26 51°24.976 2°47.02 8.8 339 1.8 101380 100
2008-12-16 14:27 51°24.803 2°47.161 10.4 333 1.8 101390 100
2008-12-16 14:28 51°24.626 2°47.289 9.6 339 1.8 101380 100
2008-12-16 14:29 51°24.451 2°47.43 10.5 332 1.8 101390 100
2008-12-16 14:30 51°24.272 2°47.562 10.1 333 1.7 101390 100
2008-12-16 14:31 51°24.089 2°47.7 10.7 334 1.6 101390 100
2008-12-16 14:32 51°23.913 2°47.843 9.5 334 1.7 101390 100
2008-12-16 14:33 51°23.734 2°47.996 11.2 334 1.7 101390 100
2008-12-16 14:34 51°23.552 2°48.14 9.9 336 1.6 101390 100
2008-12-16 14:35 51°23.36 2°48.252 10.3 332 1.7 101390 100
2008-12-16 14:36 51°23.173 2°48.351 10.7 332 1.6 101390 100
2008-12-16 14:37 51°22.981 2°48.428 11.1 337 1.6 101390 100
2008-12-16 14:38 51°22.789 2°48.495 9 334 1.6 101380 100
2008-12-16 14:39 51°22.601 2°48.569 8 332 1.5 101380 100
2008-12-16 14:40 51°22.415 2°48.653 7.2 333 1.4 101380 100
2008-12-16 14:41 51°22.224 2°48.73 10.8 330 1.4 101380 100
2008-12-16 14:42 51°22.035 2°48.805 10.3 333 1.3 101370 100
2008-12-16 14:43 51°21.847 2°48.872 10.4 334 1.3 101370 100
2008-12-16 14:44 51°21.659 2°48.975 7.1 334 1.1 101380 100
2008-12-16 14:45 51°21.48 2°49.086 9.2 330 1.1 101380 100
2008-12-16 14:46 51°21.302 2°49.197 7.8 333 1.1 101370 100
2008-12-16 14:47 51°21.126 2°49.314 8.9 329 1.1 101370 100
2008-12-16 14:48 51°20.949 2°49.433 9.7 332 1.1 101380 100
2008-12-16 14:49 51°20.768 2°49.555 9.6 330 1.2 101370 100
2008-12-16 14:50 51°20.591 2°49.681 10.6 332 1.1 101370 100
2008-12-16 14:51 51°20.413 2°49.809 9.3 330 1.1 101370 100
2008-12-16 14:52 51°20.235 2°49.939 9.9 328 1.1 101370 100
2008-12-16 14:53 51°20.058 2°50.068 8.5 335 1.1 101380 100
2008-12-16 14:54 51°19.878 2°50.209 9.4 336 1.1 101380 100
2008-12-16 14:55 51°19.696 2°50.353 10.2 337 1.1 101380 100
2008-12-16 14:56 51°19.517 2°50.487 8.7 334 1.1 101380 100
2008-12-16 14:57 51°19.328 2°50.613 11.6 333 1 101380 100
2008-12-16 14:58 51°19.143 2°50.74 11.5 332 1 101370 100
2008-12-16 14:59 51°18.963 2°50.87 11.7 337 1 101370 100
2008-12-16 15:00 51°18.781 2°51.021 9.1 336 0.8 101370 100
2008-12-16 15:01 51°18.615 2°51.172 10.7 335 0.8 101370 100
2008-12-16 15:02 51°18.446 2°51.328 9 333 0.7 101380 100
2008-12-16 15:03 51°18.272 2°51.492 9 334 0.6 101380 100
2008-12-16 15:04 51°18.096 2°51.638 10.9 334 0.7 101380 100
2008-12-16 15:05 51°17.917 2°51.773 9.5 339 0.7 101370 100
2008-12-16 15:06 51°17.741 2°51.918 10.2 334 0.7 101380 100
2008-12-16 15:07 51°17.566 2°52.06 7.8 337 0.7 101370 100
2008-12-16 15:08 51°17.393 2°52.196 7.5 333 0.7 101380 100
2008-12-16 15:09 51°17.208 2°52.29 10.4 333 0.8 101370 100
2008-12-16 15:10 51°17.021 2°52.376 8.7 334 0.9 101370 100
2008-12-16 15:11 51°16.832 2°52.469 10.4 336 0.9 101380 100
2008-12-16 15:12 51°16.644 2°52.565 11.2 335 0.9 101370 100
2008-12-16 15:13 51°16.457 2°52.658 9.9 334 0.8 101370 100
2008-12-16 15:14 51°16.264 2°52.755 11.4 336 0.7 101370 100
2008-12-16 15:15 51°16.081 2°52.88 11.3 334 0.6 101360 100
2008-12-16 15:16 51°15.921 2°53.016 9.3 337 0.6 101360 100
2008-12-16 15:17 51°15.776 2°53.143 7.3 338 0.6 101360 100
2008-12-16 15:18 51°15.647 2°53.324 6.7 342 0.6 101360 100
2008-12-16 15:19 51°15.532 2°53.522 9.8 336 0.7 101360 100
2008-12-16 15:20 51°15.417 2°53.718 8.4 335 0.7 101360 100
2008-12-16 15:21 51°15.298 2°53.909 7.3 336 0.7 101360 100
2008-12-16 15:22 51°15.217 2°54.045 6 332 0.7 101370 100
2008-12-16 15:23 51°15.152 2°54.158 6.2 337 0.7 101360 100
2008-12-16 15:24 51°15.095 2°54.31 8.5 340 0.7 101360 100
2008-12-16 15:25 51°15.055 2°54.488 6.9 349 0.6 101360 100
2008-12-16 15:26 51°15.018 2°54.606 5.3 339 0.6 101360 100
2008-12-16 15:27 51°14.972 2°54.666 5.2 330 0.5 101370 100
2008-12-16 15:28 51°14.924 2°54.692 4.9 328 0.5 101370 100
2008-12-16 15:29 51°14.851 2°54.695 8.4 336 0.5 101360 100
2008-12-16 15:30 51°14.735 2°54.746 6 340 0.4 101360 100
2008-12-16 15:31 51°14.61 2°54.879 7.3 333 0.5 101360 100
2008-12-16 15:32 51°14.469 2°55.021 8.8 336 0.5 101370 100
2008-12-16 15:33 51°14.319 2°55.197 7.8 343 0.5 101360 100
2008-12-16 15:34 51°14.176 2°55.369 7.3 343 0.6 101360 100
2008-12-16 15:35 51°14.036 2°55.482 6.5 335 0.6 101360 100
2008-12-16 15:36 51°13.927 2°55.557 6.4 336 0.7 101370 100